Weather History for 03772 - November, 2013

Change the Weather History Date:

Thursday, November 21, 2013

  Actual Average Record
Temperature  
Mean Temperature 42 °F -  
Max Temperature 46 °F 46 °F - ()
Min Temperature 37 °F 37 °F - ()
Degree Days  
Heating Degree Days 24    
Moisture  
Dew Point 37 °F    
Average Humidity 81    
Maximum Humidity 100    
Minimum Humidity 56    
Precipitation  
Precipitation 0.00 in - - ()
Sea Level Pressure  
Sea Level Pressure 29.67 in    
Wind  
Wind Speed 8 mph ()    
Max Wind Speed 16 mph    
Max Gust Speed 28 mph    
Visibility 7.9 miles    
Events Rain    
T = Trace of Precipitation, MM = Missing Value Source: Averaged Metar Reports

Daily Weather History Graph

Daily Weather History Graph

Search for Another Location

Airport or City:

Trip Planner

Search our weather history database for the weather conditions in past years. The results will help you decide how hot, cold, wet, or windy it might be!

Date:

Astronomy

Nov. 21, 2013 Rise Set
Actual Time 7:29 AM GMT 4:05 PM GMT
Civil Twilight 6:52 AM GMT 4:42 PM GMT
Nautical Twilight 6:10 AM GMT 5:24 PM GMT
Astronomical Twilight 5:31 AM GMT 6:03 PM GMT
Moon 7:31 PM GMT (11/21) 10:24 AM GMT (11/21)
Length of Visible Light 9h 50m
Length of Day
8h 35m
Waning Gibbous, 87% of the Moon is Illuminated
Nov 21
Waning Gibbous
Nov 25
Last Quarter
Dec 3
New
Dec 9
First Quarter
Dec 17
Full

Hourly Weather History & Observations

Time (GMT) Temp. Windchill Dew Point Humidity Pressure Visibility Wind Dir Wind Speed Gust Speed Precip Events Conditions
12:00 AM 38 °F - 36 °F 90% 29.43 in 4 mi North 6.9 mph - - Rain Light Drizzle
12:20 AM 39.2 °F 35.9 °F 37.4 °F 93% 29.42 in 6.2 mi North 4.6 mph - N/A Rain Light Rain
12:50 AM 39.2 °F 34.2 °F 37.4 °F 93% 29.44 in 6.2 mi North 6.9 mph - N/A   Mostly Cloudy
1:20 AM 39.2 °F - 37.4 °F 93% 29.44 in 6.2 mi North - - N/A   Mostly Cloudy
1:50 AM 39.2 °F 33.6 °F 37.4 °F 93% 29.44 in 6.2 mi North 8.1 mph - N/A   Mostly Cloudy
2:20 AM 39.2 °F 34.2 °F 35.6 °F 87% 29.44 in 6.2 mi North 6.9 mph - N/A   Overcast
2:50 AM 39.2 °F 33.6 °F 35.6 °F 87% 29.44 in 6.2 mi NW 8.1 mph - N/A   Mostly Cloudy
3:00 AM 38 °F - 35 °F 85% 29.46 in 19 mi NNW 8.1 mph - -   Mostly Cloudy
3:20 AM 39.2 °F 33.6 °F 35.6 °F 87% 29.44 in 6.2 mi NW 8.1 mph - N/A   Mostly Cloudy
3:50 AM 39.2 °F 33.0 °F 37.4 °F 93% 29.44 in 6.2 mi NW 9.2 mph - N/A   Mostly Cloudy
4:20 AM 39.2 °F 33.0 °F 37.4 °F 93% 29.44 in 6.2 mi NW 9.2 mph - N/A   Mostly Cloudy
4:50 AM 39.2 °F 32.5 °F 39.2 °F 100% 29.44 in 4.3 mi NW 10.4 mph - N/A Rain Light Rain
5:20 AM 41.0 °F 35.2 °F 39.2 °F 93% 29.44 in 6.2 mi North 9.2 mph - N/A Rain Light Rain
5:50 AM 42.8 °F 38.0 °F 39.2 °F 87% 29.47 in 6.2 mi North 8.1 mph - N/A   Mostly Cloudy
6:00 AM 42 °F - 38 °F 82% 29.48 in 16 mi North 10.4 mph - - Rain Rain
6:20 AM 42.8 °F 38.0 °F 39.2 °F 87% 29.50 in 6.2 mi North 8.1 mph - N/A Rain Light Rain
6:50 AM 42.8 °F 37.0 °F 39.2 °F 87% 29.50 in 6.2 mi NNE 10.4 mph - N/A   Mostly Cloudy
7:20 AM 42.8 °F 36.6 °F 37.4 °F 81% 29.53 in 6.2 mi North 11.5 mph - N/A   Mostly Cloudy
7:50 AM 42.8 °F 36.6 °F 37.4 °F 81% 29.53 in 6.2 mi NNE 11.5 mph - N/A   Mostly Cloudy
8:20 AM 42.8 °F 36.2 °F 37.4 °F 81% 29.56 in 6.2 mi NNE 12.7 mph 25.3 mph N/A   Mostly Cloudy
8:50 AM 42.8 °F 35.8 °F 37.4 °F 81% 29.56 in 6.2 mi NNE 13.8 mph 27.6 mph N/A   Mostly Cloudy
9:00 AM 42 °F - 36 °F 74% 29.58 in 18 mi NNE 16.1 mph - -   Mostly Cloudy
9:20 AM 42.8 °F 35.1 °F 37.4 °F 81% 29.59 in 6.2 mi NNE 16.1 mph - N/A   Scattered Clouds
9:50 AM 42.8 °F 35.4 °F 39.2 °F 87% 29.62 in 6.2 mi NNE 15.0 mph - N/A   Scattered Clouds
10:20 AM 44.6 °F 38.4 °F 39.2 °F 81% 29.65 in 6.2 mi NE 12.7 mph - N/A   Scattered Clouds
10:50 AM 44.6 °F 38.4 °F 39.2 °F 81% 29.65 in 6.2 mi NE 12.7 mph - N/A   Scattered Clouds
11:20 AM 44.6 °F 38.4 °F 39.2 °F 81% 29.68 in 6.2 mi NNE 12.7 mph - N/A   Scattered Clouds
11:50 AM 42.8 °F 37.0 °F 39.2 °F 87% 29.68 in 6.2 mi NNE 10.4 mph - N/A Rain Light Rain
12:00 PM 44 °F - 37 °F 69% 29.70 in 16 mi NNE 11.5 mph - - Rain Rain
12:20 PM 44.6 °F 38.1 °F 37.4 °F 76% 29.71 in 6.2 mi NNE 13.8 mph - N/A   Scattered Clouds
12:50 PM 46.4 °F 40.1 °F 37.4 °F 71% 29.71 in 6.2 mi NNE 15.0 mph - N/A   Partly Cloudy
1:20 PM 46.4 °F 40.4 °F 35.6 °F 66% 29.71 in 6.2 mi NNE 13.8 mph 26.5 mph N/A   Partly Cloudy
1:50 PM 46.4 °F 41.5 °F 35.6 °F 66% 29.74 in 6.2 mi NNE 10.4 mph - N/A   Scattered Clouds
2:20 PM 46.4 °F 41.5 °F 35.6 °F 66% 29.74 in 6.2 mi NNE 10.4 mph - N/A   Scattered Clouds
2:50 PM 46.4 °F 41.9 °F 37.4 °F 71% 29.74 in 6.2 mi NNE 9.2 mph - N/A   Partly Cloudy
3:00 PM 46 °F - 35 °F 56% 29.76 in 19 mi NNE 11.5 mph - -   Mostly Cloudy
3:20 PM 44.6 °F 39.2 °F 35.6 °F 71% 29.77 in 6.2 mi NE 10.4 mph - N/A   Partly Cloudy
3:50 PM 44.6 °F 39.2 °F 35.6 °F 71% 29.77 in 6.2 mi NNE 10.4 mph - N/A   Partly Cloudy
4:20 PM 44.6 °F 40.7 °F 35.6 °F 71% 29.80 in - NNE 6.9 mph - N/A   Clear
4:50 PM 44.6 °F 39.7 °F 35.6 °F 71% 29.80 in - NNE 9.2 mph - N/A   Clear
5:20 PM 42.8 °F 38.0 °F 35.6 °F 76% 29.83 in - NNE 8.1 mph - N/A   Clear
5:50 PM 42.8 °F 39.3 °F 35.6 °F 76% 29.83 in - North 5.8 mph - N/A   Clear
6:00 PM 42 °F - 35 °F 67% 29.85 in 16 mi North 8.1 mph - -  
6:20 PM 42.8 °F 38.0 °F 35.6 °F 76% 29.86 in - North 8.1 mph - N/A   Clear
6:50 PM 41.0 °F 37.1 °F 35.6 °F 81% 29.86 in - North 5.8 mph - N/A   Clear
7:20 PM 41.0 °F 36.4 °F 35.6 °F 81% 29.86 in - North 6.9 mph - N/A   Clear
7:50 PM 41.0 °F 36.4 °F 35.6 °F 81% 29.89 in - North 6.9 mph - N/A   Clear
8:20 PM 39.2 °F 35.0 °F 35.6 °F 87% 29.89 in - North 5.8 mph - N/A   Clear
8:50 PM 39.2 °F 35.0 °F 35.6 °F 87% 29.89 in - North 5.8 mph - N/A   Clear
9:00 PM 40 °F - 34 °F 70% 29.90 in 19 mi North 6.9 mph - -  
9:20 PM 39.2 °F 35.9 °F 35.6 °F 87% 29.92 in - NNW 4.6 mph - N/A   Clear
9:50 PM 39.2 °F 35.0 °F 35.6 °F 87% 29.92 in - North 5.8 mph - N/A   Clear
10:20 PM 39.2 °F 35.0 °F 35.6 °F 87% 29.92 in 6.2 mi North 5.8 mph - N/A   Partly Cloudy
10:50 PM 39.2 °F 34.2 °F 35.6 °F 87% 29.92 in 6.2 mi North 6.9 mph - N/A   Partly Cloudy
11:20 PM 39.2 °F 34.2 °F 35.6 °F 87% 29.95 in 6.2 mi North 6.9 mph - N/A   Partly Cloudy
11:50 PM 39.2 °F 34.2 °F 33.8 °F 81% 29.95 in 6.2 mi North 6.9 mph - N/A   Partly Cloudy